Погода Богородицкое

Погода Богородицкое : погода сейчас, прогноз погоды и архив. Всё, что Вы хотите узнать о погоде Богородицкое!

Поиск расширенной информации на нашем сайте:

Другие новости

Новости СМИ2

Главная страница сайта

Новости сайта

03.07.2017

Напоминаем, что на нашем специализированном сайте Метеоцентр.Азия вы можете получить высокодетализированные автоматические прогнозы погоды по пунктам России, СНГ и мира в авиационном формате (включающие направление и скорость ветра, видимость, явления погоды, количество и форму облачности, нижнюю и верхнюю границу облачности).


Погода Богородицкое - сегодня

Время (UTC), дата Ветер
(°,м/с) 
Видим.   Явления Облачность Т
(°С)
Тd
(°С)
f(%) Тe
(°С)
Pmin
(гПа)
dP
(гПа)
Po
(мм)
O2
(г/м3)
Тmin Tmax R s Состояние
почвы
12 20.10.17 050 (СВ) 20000 м    10/3 2000 м средняя, верхняя 
[Ac trans|Ci fib]
+11.1 +2.5 55 +11  1020.6  -0.6  745  288           
15 20.10.17 030 (СВ) 20000 м    4/0 верхняя 
[Ci fib]
+7.1 +1.7 68 +7  1021.4  0.5  745  292           
18 20.10.17 360 (С) 10 км    1/0 верхняя 
[Ci fib]
+3.4 +0.2 80 +4  1022.4  0.5  746  297    +11.3       
21 20.10.17 030 (СВ) 10 км    1/0 верхняя 
[Ci fib]
+1.2 -0.5 88 +2  1022.6  746  299           
00 21.10.17 360 (С) 10 км    3/0 верхняя 
[Ci fib]
-0.5 -1.4 94 1022.4  -0.4  745  301           
03 21.10.17 тихо ()   10 км    3/0 верхняя 
[Ci fib]
-1.5 -2.3 94 -2  1021.9  -0.6  745  302  -1.9         
06 21.10.17 тихо ()   20000 м    3/3 2000 м средняя 
[Ac trans]
+2.6 -0.1 82 +3  1021  -0.4  745  297  -2.5         
09 21.10.17 030 (СВ) 20000 м    9/9 2000 м средняя 
[Ac trans]
+6.8 -0.2 61 +6  1020.2  -0.4  744  293           
12 21.10.17 040 (СВ) 20000 м    10/4 600 м кучево-дожд., средняя 
[Cb calv|Ac und]
+7.3 -1.4 54 +7  1018.5  -1.6  743  292           
15 21.10.17 020 (С) 10 км    10/10 2000 м 
[Ac und]
+5.8 +0.4 68 +7  1018  -0.7  743  293           
18 21.10.17 060 (СВ) 20000 м    10/8 600 м кучево-дожд., средняя 
[Cb calv|Ac und]
+4.8 +1.2 77 +4  1017.5  -0.4  742  294    +8.1       
21 21.10.17 040 (СВ) 10 км    10/8 600 м кучево-дожд., средняя 
[Cb calv|Ac und]
+4.1 +1.3 82 +4  1016.8  -0.8  742  294           
00 22.10.17 тихо ()   10 км  слаб. дождь  10/10 500 м 
[Frnb|Ns]
+3.2 +1.7 90 +3  1016.3  -0.6  741  295           
03 22.10.17 040 (СВ) 10 км  {дождь}  10/10 540 м 
[St]
+2.6 +1.6 93 +3  1015.9  -0.5  741  295  +2       
06 22.10.17 030 (СВ) 4000 м  дымка{дождь}  10/10 540 м 
[St]
+1.4 +0.3 92 1016.2  0.2  741  297  +1.2       
09 22.10.17 020 (С) 20000 м    8/8 600 м кучево-дожд. 
[Cb calv]
+3.8 -0.5 73 +1  1016.7  0.7  742  295           
12 22.10.17 020 (С) 20000 м    6/4 600 м кучево-дожд., средняя 
[Cb calv|Ac trans]
+4.7 -2.3 60 +3  1017.3  0.7  742  294           
15 22.10.17 020 (С) 10 км    9/9 1000 м 
[Sc diur, vesp]
+2.4 -4.7 59 +1  1018.7  1.1  743  297           
18 22.10.17 020 (С) 10 км    3/3 2000 м средняя 
[Ac trans]
+0.1 -4.2 73 -1  1020.2  1.3  744  300    +5       
21 22.10.17 320 (СЗ) 10 км    1/1 2000 м средняя 
[Ac trans]
-2.2 -4.7 83 -2  1021.5  745  303           
00 23.10.17 тихо ()   10 км    ясно 
-5.1 -6.1 93 -5  1022.5  0.6  745  307           
03 23.10.17 тихо ()   10 км    ясно 
-6.3 -7.5 91 -6  1022.8  0.2  745  308  -6.5         
06 23.10.17 тихо ()   20000 м    6/0 верхняя 
[Ci fib]
-0.9 -3.1 85 -1  1023.2  746  302  -6.8         
09 23.10.17 280 (З) 20000 м    10/5 2000 м средняя, верхняя 
[Ac trans|Ci fib]
+2.4 -5.9 54 +2  1022.9  746  299           
12 23.10.17 300 (СЗ) 20000 м    9/9 2000 м средняя 
[Ac trans]
+3.1 -4.8 56 +4  1022.8  -0.1  746  298           
Время (UTC), дата Ветер
(°,м/с) 
Видим.   Явления Облачность Т
(°С)
Тd
(°С)
f(%) Тe
(°С)
Pmin
(гПа)
dP
(гПа)
Po
(мм)
O2
(г/м3)
Тmin Tmax R s Состояние
почвы

Для получения пояснительной информации подведите курсор к названию столбца.

ПОГОДА Богородицкое - архив

Всё, что Вы хотите узнать о погоде Богородицкое - удобно и подробно!

Выберите нужную дату (начиная с 1 января 2015* года) и нажмите кнопку "Найти".
Будут отображены архивные сводки погоды по пункту Богородицкое, начиная с указанной даты.


Отображать данные в формате CSV (для использования в таблицах Excel)


Внимание! Наш архив погоды предназначен исключительно для личного некоммерческого использования в познавательных целях. Если Вам необходимы официальные справки о состоянии погоды (для производственных, юридических, коммерческих и т.п. целей), обращайтесь в органы Росгидромета.

*Примечание: данная дата относится к архиву по метеостанциям СССР (Россия, СНГ, Балтия).
Архив по метеостанциям Зарубежной Европы и Азии (кроме Китая) хранится 10 дней, по другим регионам земного шара (Китай, Африка, Америка, Австралия, Океания) - 1 день.

Богородицкое - район местоположения метеостанции


Название, широта, долгота, высота метеостанции:
Богородицкое 51.17°ш. 37.35°д. 226 м над ур. моря [Российская Федерация]

Дополнительная информация

В oтличие oт бoльшинства пoгoдных сайтoв мы публикуем пoдрoбную метеoинфoрмацию в детальнoм прoфессиoнальнoм фoрмате.

Характеристики температуры и влажнoсти вoздуха измеряются на высoте 2 м в тени вдали oт зданий и деревьев.
Скoрoсть ветра измеряется на высoте 10 м (на урoвне рoста челoвека скoрoсть ветра ниже в 1.5-2 раза). Если метеoстанция нахoдится в гoрoде или в лесу, тo скoрoсть ветра занижена на 2-4 м/с пo сравнению с oткрытым местoм. Скoрoсть ветра над акватoриями крупных рек и oзёр, а также на вершинах хoлмoв на 2-5 м/с выше, чем в oбычных услoвиях.
Атмoсфернoе давление в разных тoчках местнoсти мoжет значительнo oтличаться oт давления на метеoстанции, в зависимoсти oт услoвий рельефа (при пoдъёме на 10 м давление пoнижается примернo на 1 мм рт.ст.).